SCP
0 0 0 0 0 0 0 0 0 0 0 0 0 0 0 0 0 0 0 0 0 0 0 0 0 0 0 0 0 0 0 0 0 0 0 0 0 0 0 0 0 0 0
0 0 0 0 0 0 0 0 0 0 0 0 0 0 0 0 0 0 0 0 0 0 0 0 0 0 0 0 0 0 0 0 0 0 0 0 0 0 0 0 0 0 0
0 0 0 0 0 0 0 0 0 0 0 0 0 0 0 0 0 0 0 0 0 0 0 0 0 0 0 0 0 0 0 0 0 0 0 0 0 0 0 0 0 0 0
0 0 0 0 0 0 0 0 0 0 0 0 0 0 0 0 0 0 0 0 0 0 0 0 0 0 0 0 0 0 0 0 0 0 0 0 0 0 0 0 0 0 0
0 0 0 0 0 0 0 0 0 0 0 0 0 0 0 0 0 0 0 0 0 0 0 0 0 0 0 0 0 0 0 0 0 0 0 0 0 0 0 0 0 0 0
0 0 0 0 0 0 0 0 0 0 0 0 0 0 0 0 0 0 0 0 0 0 0 0 0 0 0 0 0 0 0 0 0 0 0 0 0 0 0 0 0 0 0
0 0 0 0 0 0 0 0 0 0 0 0 0 0 0 0 0 0 0 0 0 0 0 0 0 0 0 0 0 0 0 0 0 0 0 0 0 0 0 0 0 0 0
0 0 0 0 0 0 0 0 0 0 0 0 0 0 0 0 0 0 0 0 0 0 0 0 0 0 0 0 0 0 0 0 0 0 0 0 0 0 0 0 0 0 0
0 0 0 0 0 0 0 0 0 0 0 0 0 0 0 0 0 0 0 0 0 0 0 0 0 0 0 0 0 0 0 0 0 0 0 0 0 0 0 0 0 0 0
0 0 0 0 0 0 0 0 0 0 0 0 0 0 0 0 0 0 0 0 0 0 0 0 0 0 0 0 0 0 0 0 0 0 0 0 0 0 0 0 0 0 0
0 0 0 0 0 0 0 0 0 0 0 0 0 0 0 0 0 0 0 0 0 0 0 0 0 0 0 0 0 0 0 0 0 0 0 0 0 0 0 0 0 0 0
0 0 0 0 0 0 0 0 0 0 0 0 0 0 0 0 0 0 0 0 0 0 0 0 0 0 0 0 0 0 0 0 0 0 0 0 0 0 0 0 0 0 0
-0 -0 0 0 0 0 0 0 0 0 0 0 0 0 0 0 0 0 0 0 0 0 0 0 0 0 0 0 0 0 0 0 0 0 0 0 0 0 0 0 0 0 0
-0 -0 -0 -0 -0 -0 -0 0 0 0 0 0 0 0 0 0 0 0 0 0 0 0 0 0 0 0 0 0 0 0 0 0 0 0 0 0 0 0 0 0 0 0 0
-0 -0 -0 -0 -0 -0 -0 -0 0 0 0 0 0 0 0 0 0 0 0 0 0 0 0 0 0 0 0 0 0 0 0 0 0 0 0 0 0 0 0 0 0 0 0
-0 -0 -0 -0 -0 -0 -0 -0 -0 -0 0 0 0 0 0 0 0 0 0 0 0 0 0 0 0 0 0 0 0 0 0 0 0 0 0 0 0 0 0 0 0 0 0
-0 -0 -0 -0 -0 -0 -0 -0 -0 -0 -0 0 0 0 0 0 0 0 0 0 0 0 0 0 0 0 0 0 0 0 0 0 0 0 0 0 0 0 0 0 0 0 0
-0 -0 -0 -0 -0 -0 -0 -0 -0 -0 -0 -0 -0 0 0 0 0 0 0 0 0 0 0 0 0 0 0 0 0 0 0 0 0 0 0 0 0 0 0 0 0 0 0
0 0 -0 -0 -0 -0 -0 -0 -0 -0 -0 -0 -0 -0 -0 0 0 0 0 0 0 0 0 0 0 0 0 0 0 0 0 0 0 0 0 0 0 0 0 0 0 0 0
0 0 0 0 0 0 0 -0 -0 -0 0 0 -0 -0 -0 -0 -0 0 0 0 0 0 0 0 0 0 0 0 0 0 0 0 0 0 0 0 0 0 0 0 0 0 0
0 0 0 0 0 0 0 0 0 0 -0 -0 0 0 0 0 0 -0 0 0 0 0 0 0 0 0 0 0 0 0 0 0 0 0 0 0 0 0 0 0 0 0 0
0 0 0 0 0 0 0 0 0 0 0 0 0 0 0 0 0 0 0 0 0 0 0 0 0 0 0 0 0 0 0 0 0 0 0 0 0 0 0 0 0 0 0
0 0 0 0 0 0 0 0 0 0 0 0 0 0 0 0 0 0 0 0 0 0 0 0 0 0 0 0 0 0 0 0 0 0 0 0 0 0 0 0 0 0 0
0 0 0 0 0 0 0 0 0 0 0 0 0 0 0 0 0 0 0 0 0 0 0 0 0 0 0 0 0 0 0 0 0 0 0 0 0 0 0 0 0 0 0
0 0 0 0 0 0 0 0 0 0 0 0 0 0 0 0 0 0 0 0 0 0 0 0 0 0 0 0 0 0 0 0 0 0 0 0 0 0 0 0 0 0 0
0 0 0 0 0 0 0 0 0 0 0 0 0 0 0 0 0 0 0 0 0 0 0 0 0 0 0 0 0 0 0 0 0 0 0 0 0 0 0 0 0 0 0
Wind_Speed_500mb
10 15 29 38 51 60 67 71 72 71 72 75 76 82 90 100 103 101 98 94 90 85 79 77 71 68 63 56 51 47 43 38 38 32 29 26 26 31 34 38 42 46 51
28 9 15 31 41 50 58 60 63 64 67 70 71 74 78 88 101 102 101 98 94 90 85 81 77 71 66 59 53 48 42 40 40 36 32 29 28 31 35 39 41 45 51
28 22 14 11 21 36 44 49 53 56 60 64 70 72 72 78 89 99 100 98 95 90 87 83 79 75 68 62 55 50 44 43 41 40 34 31 30 30 35 38 40 45 49
29 24 19 13 8 3 19 36 47 52 52 55 60 63 67 71 77 86 97 100 98 95 89 83 79 74 68 62 55 50 44 45 42 40 36 34 33 31 37 43 43 45 51
47 35 28 21 15 9 3 14 27 37 47 51 50 55 59 65 70 76 86 98 99 96 90 85 80 74 68 60 54 49 48 46 44 41 39 36 32 32 36 42 48 52 53
66 62 49 32 21 15 10 6 8 24 38 47 52 52 52 57 59 63 69 83 96 97 93 86 82 77 71 63 56 51 48 46 44 43 40 38 30 32 35 39 45 51 56
71 71 67 60 50 33 21 12 3 6 19 32 41 46 48 50 51 54 57 67 80 91 91 86 84 80 75 67 61 56 53 51 48 43 43 36 35 32 36 37 41 43 46
62 66 69 70 66 59 44 29 18 11 9 15 25 35 40 40 45 49 49 55 62 72 82 84 82 79 75 71 66 62 58 55 50 46 41 37 39 36 35 35 38 40 39
59 62 63 62 62 65 62 56 44 30 18 15 19 22 30 38 42 44 47 48 51 58 66 74 77 77 74 71 68 64 59 55 51 48 47 44 41 39 34 35 36 36 38
49 51 52 55 60 58 55 56 56 45 36 26 16 13 23 28 32 39 44 44 45 47 54 62 68 70 70 70 69 64 62 59 53 51 50 47 44 41 34 32 33 32 30
48 47 42 41 42 46 47 52 48 43 44 38 27 21 10 9 22 30 36 41 45 45 48 54 61 64 67 67 66 64 62 54 52 52 50 49 47 42 35 31 32 29 26
50 49 47 43 40 38 38 38 39 47 50 42 37 32 24 16 14 8 25 36 43 49 51 50 50 52 57 61 65 63 63 59 57 57 57 57 51 43 34 32 33 28 23
58 59 55 50 45 43 42 40 35 35 37 42 50 45 34 26 15 9 2 15 32 42 49 52 53 54 55 58 61 63 65 66 65 65 66 58 48 39 40 35 34 28 21
60 63 67 66 60 53 49 45 42 40 37 36 35 36 43 42 28 23 14 7 11 25 40 45 47 51 56 59 62 66 70 71 70 68 64 55 51 49 43 35 35 28 21
71 68 67 67 69 69 65 59 54 46 42 41 38 38 38 33 35 39 32 22 21 15 21 33 41 47 53 57 60 66 73 74 73 72 66 61 57 52 46 39 37 32 24
81 78 77 78 75 73 77 78 67 60 53 46 45 44 44 39 37 33 33 30 22 17 22 25 31 39 47 53 58 62 69 74 74 72 70 66 62 57 50 44 39 35 26
78 81 82 80 78 79 79 78 85 78 69 62 54 53 50 50 50 43 40 35 31 26 26 31 32 33 39 45 52 55 64 67 65 72 76 70 64 59 54 49 42 38 33
72 74 76 76 75 75 75 76 77 81 87 82 70 62 58 57 55 54 47 48 41 33 28 31 36 37 37 38 38 43 52 57 64 71 73 69 68 63 60 55 47 42 35
64 66 68 70 68 66 65 67 70 72 76 81 80 73 64 59 61 60 55 51 50 47 38 30 34 38 39 37 35 36 41 50 58 65 68 70 72 69 64 58 51 43 40
54 53 53 55 56 56 55 57 61 63 67 71 74 74 70 65 64 63 60 57 54 56 51 44 36 34 38 37 35 35 39 45 48 59 66 68 73 73 68 60 56 51 43
47 48 49 51 53 53 54 54 55 57 61 64 66 63 60 59 68 70 67 64 61 59 58 56 52 43 40 39 38 40 40 44 46 49 61 68 74 76 71 64 59 54 44
49 51 51 52 52 53 53 53 55 57 58 60 62 59 53 58 65 69 71 72 71 68 64 63 63 58 48 39 44 44 45 42 43 46 50 61 68 70 73 69 66 59 54
51 52 53 53 54 55 56 56 57 58 59 60 60 60 57 59 61 63 65 66 69 70 70 70 71 70 61 50 40 47 51 46 39 40 47 53 63 70 74 76 73 66 63
48 51 54 56 58 59 61 62 62 62 63 63 62 62 61 60 61 62 63 62 63 68 69 72 76 76 73 67 54 48 47 50 45 39 39 50 58 67 74 79 76 70 64
51 53 54 56 58 60 62 63 64 64 65 64 63 63 61 62 62 60 61 63 63 65 69 70 75 77 78 75 71 57 56 51 50 45 44 45 55 63 71 78 81 75 70
54 57 60 61 62 62 63 64 66 67 69 69 68 66 63 62 62 62 59 60 63 65 65 66 70 74 78 81 79 70 62 61 51 48 48 49 52 60 66 75 82 79 76
Wind_Direction_500mb
85 207 223 237 249 251 249 249 249 250 249 247 245 241 238 234 232 229 228 227 225 225 223 223 223 223 225 224 225 229 233 237 241 241 252 266 278 289 297 304 308 314 317
53 90 206 223 233 237 247 252 250 250 249 248 247 245 242 238 234 231 228 227 225 224 223 222 221 221 222 223 225 228 231 236 243 248 251 259 270 281 293 303 308 317 319
40 57 85 174 220 231 237 242 251 252 250 248 245 245 243 241 238 234 231 230 228 227 226 225 223 221 222 223 225 228 229 235 241 249 256 262 272 282 292 301 311 319 321
30 37 46 60 74 178 230 237 240 245 249 248 248 247 245 244 243 238 233 231 229 228 227 227 226 225 226 227 228 231 231 236 241 249 256 265 276 291 302 309 313 320 323
40 36 33 31 38 53 155 226 233 234 241 246 250 249 247 245 243 241 236 233 231 229 228 227 227 226 228 231 232 233 233 236 241 247 253 263 276 292 304 313 319 323 325
44 44 40 33 23 23 34 60 212 224 229 238 246 250 252 249 247 245 241 237 233 231 229 227 227 226 227 229 231 232 236 241 243 247 253 260 273 287 299 310 318 323 328
41 41 42 42 39 29 13 5 354 226 229 232 237 243 248 252 253 251 246 241 238 234 231 229 228 227 227 229 229 231 233 238 242 247 251 259 269 281 293 306 313 317 321
32 34 35 36 37 38 34 25 6 336 283 247 240 241 245 247 248 249 250 248 242 238 235 233 231 231 231 231 231 233 235 238 241 247 252 255 262 272 286 299 306 312 318
25 24 23 23 27 30 32 33 31 18 359 313 268 250 244 242 244 244 245 246 244 239 235 234 233 233 232 233 234 236 237 238 238 239 242 249 257 266 279 290 299 309 320
23 22 20 16 15 18 18 23 28 29 30 21 4 311 264 249 243 241 242 242 242 238 234 232 232 233 233 234 235 236 236 237 237 240 242 246 253 263 272 284 294 304 318
3 6 8 11 11 12 10 7 8 15 23 28 33 33 3 292 249 239 238 237 239 237 235 232 229 228 228 229 231 234 238 240 240 241 241 243 248 255 267 277 286 295 307
342 345 346 350 355 358 358 2 3 0 360 3 10 23 30 35 34 268 237 236 235 235 235 233 232 231 230 229 231 231 234 235 235 238 238 240 245 251 262 269 276 282 295
326 328 330 332 335 338 339 340 347 356 355 352 350 353 3 18 25 29 26 242 240 242 238 237 233 229 229 227 228 231 233 232 232 234 236 240 245 247 250 259 269 272 285
314 315 318 320 320 322 323 326 332 336 338 339 339 337 339 342 344 357 8 312 275 253 248 240 235 232 230 230 225 226 227 231 232 236 239 240 239 239 248 254 262 263 267
310 309 307 307 310 312 313 316 320 320 320 318 317 316 317 319 326 331 338 349 332 286 273 253 237 232 227 226 225 225 227 228 228 230 233 236 236 238 243 248 254 256 253
304 303 303 303 303 303 305 306 305 305 304 301 300 298 294 292 293 296 299 308 307 300 270 262 247 237 236 231 227 226 229 227 228 229 231 230 232 236 239 243 247 251 242
298 299 299 299 299 299 299 298 298 295 297 294 291 289 286 283 280 276 277 277 284 284 271 266 259 249 243 238 237 234 236 235 231 228 231 229 228 232 236 238 240 244 238
292 292 294 296 296 296 295 294 293 293 293 292 288 286 282 280 274 272 266 265 266 263 270 269 265 262 254 246 240 238 242 238 232 231 232 231 228 228 231 233 233 237 235
291 293 295 296 297 296 294 293 291 288 287 287 287 284 282 277 273 269 264 261 257 255 255 250 263 261 258 255 249 243 242 243 239 234 233 229 227 227 227 228 231 233 230
296 295 294 293 294 295 294 293 293 292 289 285 283 284 285 281 273 267 261 258 251 248 245 244 240 250 260 253 250 245 242 243 242 237 233 229 227 226 226 226 226 230 229
301 299 299 298 298 298 298 297 296 293 291 289 286 284 285 282 274 269 262 258 253 246 241 238 236 234 235 256 247 245 241 242 244 245 238 231 228 225 223 223 222 228 223
298 299 300 299 300 299 299 297 295 293 292 291 291 288 283 275 274 273 270 265 260 255 246 239 233 232 227 229 255 248 245 241 240 241 243 235 230 226 225 220 218 220 221
300 301 300 300 299 299 298 297 296 295 294 293 292 290 286 280 276 274 270 266 263 258 253 245 240 232 228 220 226 251 249 245 241 239 238 239 229 224 222 218 216 218 217
301 300 300 299 299 297 296 296 295 293 292 291 290 289 288 285 281 277 273 269 262 258 254 249 242 236 225 220 219 225 245 248 242 235 230 234 232 226 221 218 216 220 216
303 301 299 298 297 297 296 296 295 295 294 291 290 288 286 285 282 278 275 271 266 260 254 250 246 241 233 222 215 218 223 234 245 235 232 228 231 227 223 218 217 218 215
315 312 308 306 304 302 300 298 297 296 294 293 292 290 288 284 281 279 275 271 267 263 259 251 247 241 236 227 218 215 217 223 228 236 233 228 226 225 220 217 219 220 216
Wind_Speed_850mb
10 15 29 38 51 60 67 71 72 71 72 75 76 82 90 100 103 101 98 94 90 85 79 77 71 68 63 56 51 47 43 38 38 32 29 26 26 31 34 38 42 46 51
28 9 15 31 41 50 58 60 63 64 67 70 71 74 78 88 101 102 101 98 94 90 85 81 77 71 66 59 53 48 42 40 40 36 32 29 28 31 35 39 41 45 51
28 22 14 11 21 36 44 49 53 56 60 64 70 72 72 78 89 99 100 98 95 90 87 83 79 75 68 62 55 50 44 43 41 40 34 31 30 30 35 38 40 45 49
29 24 19 13 8 3 19 36 47 52 52 55 60 63 67 71 77 86 97 100 98 95 89 83 79 74 68 62 55 50 44 45 42 40 36 34 33 31 37 43 43 45 51
47 35 28 21 15 9 3 14 27 37 47 51 50 55 59 65 70 76 86 98 99 96 90 85 80 74 68 60 54 49 48 46 44 41 39 36 32 32 36 42 48 52 53
66 62 49 32 21 15 10 6 8 24 38 47 52 52 52 57 59 63 69 83 96 97 93 86 82 77 71 63 56 51 48 46 44 43 40 38 30 32 35 39 45 51 56
71 71 67 60 50 33 21 12 3 6 19 32 41 46 48 50 51 54 57 67 80 91 91 86 84 80 75 67 61 56 53 51 48 43 43 36 35 32 36 37 41 43 46
62 66 69 70 66 59 44 29 18 11 9 15 25 35 40 40 45 49 49 55 62 72 82 84 82 79 75 71 66 62 58 55 50 46 41 37 39 36 35 35 38 40 39
59 62 63 62 62 65 62 56 44 30 18 15 19 22 30 38 42 44 47 48 51 58 66 74 77 77 74 71 68 64 59 55 51 48 47 44 41 39 34 35 36 36 38
49 51 52 55 60 58 55 56 56 45 36 26 16 13 23 28 32 39 44 44 45 47 54 62 68 70 70 70 69 64 62 59 53 51 50 47 44 41 34 32 33 32 30
48 47 42 41 42 46 47 52 48 43 44 38 27 21 10 9 22 30 36 41 45 45 48 54 61 64 67 67 66 64 62 54 52 52 50 49 47 42 35 31 32 29 26
50 49 47 43 40 38 38 38 39 47 50 42 37 32 24 16 14 8 25 36 43 49 51 50 50 52 57 61 65 63 63 59 57 57 57 57 51 43 34 32 33 28 23
58 59 55 50 45 43 42 40 35 35 37 42 50 45 34 26 15 9 2 15 32 42 49 52 53 54 55 58 61 63 65 66 65 65 66 58 48 39 40 35 34 28 21
60 63 67 66 60 53 49 45 42 40 37 36 35 36 43 42 28 23 14 7 11 25 40 45 47 51 56 59 62 66 70 71 70 68 64 55 51 49 43 35 35 28 21
71 68 67 67 69 69 65 59 54 46 42 41 38 38 38 33 35 39 32 22 21 15 21 33 41 47 53 57 60 66 73 74 73 72 66 61 57 52 46 39 37 32 24
81 78 77 78 75 73 77 78 67 60 53 46 45 44 44 39 37 33 33 30 22 17 22 25 31 39 47 53 58 62 69 74 74 72 70 66 62 57 50 44 39 35 26
78 81 82 80 78 79 79 78 85 78 69 62 54 53 50 50 50 43 40 35 31 26 26 31 32 33 39 45 52 55 64 67 65 72 76 70 64 59 54 49 42 38 33
72 74 76 76 75 75 75 76 77 81 87 82 70 62 58 57 55 54 47 48 41 33 28 31 36 37 37 38 38 43 52 57 64 71 73 69 68 63 60 55 47 42 35
64 66 68 70 68 66 65 67 70 72 76 81 80 73 64 59 61 60 55 51 50 47 38 30 34 38 39 37 35 36 41 50 58 65 68 70 72 69 64 58 51 43 40
54 53 53 55 56 56 55 57 61 63 67 71 74 74 70 65 64 63 60 57 54 56 51 44 36 34 38 37 35 35 39 45 48 59 66 68 73 73 68 60 56 51 43
47 48 49 51 53 53 54 54 55 57 61 64 66 63 60 59 68 70 67 64 61 59 58 56 52 43 40 39 38 40 40 44 46 49 61 68 74 76 71 64 59 54 44
49 51 51 52 52 53 53 53 55 57 58 60 62 59 53 58 65 69 71 72 71 68 64 63 63 58 48 39 44 44 45 42 43 46 50 61 68 70 73 69 66 59 54
51 52 53 53 54 55 56 56 57 58 59 60 60 60 57 59 61 63 65 66 69 70 70 70 71 70 61 50 40 47 51 46 39 40 47 53 63 70 74 76 73 66 63
48 51 54 56 58 59 61 62 62 62 63 63 62 62 61 60 61 62 63 62 63 68 69 72 76 76 73 67 54 48 47 50 45 39 39 50 58 67 74 79 76 70 64
51 53 54 56 58 60 62 63 64 64 65 64 63 63 61 62 62 60 61 63 63 65 69 70 75 77 78 75 71 57 56 51 50 45 44 45 55 63 71 78 81 75 70
54 57 60 61 62 62 63 64 66 67 69 69 68 66 63 62 62 62 59 60 63 65 65 66 70 74 78 81 79 70 62 61 51 48 48 49 52 60 66 75 82 79 76
Wind_Direction_850mb
85 207 223 237 249 251 249 249 249 250 249 247 245 241 238 234 232 229 228 227 225 225 223 223 223 223 225 224 225 229 233 237 241 241 252 266 278 289 297 304 308 314 317
53 90 206 223 233 237 247 252 250 250 249 248 247 245 242 238 234 231 228 227 225 224 223 222 221 221 222 223 225 228 231 236 243 248 251 259 270 281 293 303 308 317 319
40 57 85 174 220 231 237 242 251 252 250 248 245 245 243 241 238 234 231 230 228 227 226 225 223 221 222 223 225 228 229 235 241 249 256 262 272 282 292 301 311 319 321
30 37 46 60 74 178 230 237 240 245 249 248 248 247 245 244 243 238 233 231 229 228 227 227 226 225 226 227 228 231 231 236 241 249 256 265 276 291 302 309 313 320 323
40 36 33 31 38 53 155 226 233 234 241 246 250 249 247 245 243 241 236 233 231 229 228 227 227 226 228 231 232 233 233 236 241 247 253 263 276 292 304 313 319 323 325
44 44 40 33 23 23 34 60 212 224 229 238 246 250 252 249 247 245 241 237 233 231 229 227 227 226 227 229 231 232 236 241 243 247 253 260 273 287 299 310 318 323 328
41 41 42 42 39 29 13 5 354 226 229 232 237 243 248 252 253 251 246 241 238 234 231 229 228 227 227 229 229 231 233 238 242 247 251 259 269 281 293 306 313 317 321
32 34 35 36 37 38 34 25 6 336 283 247 240 241 245 247 248 249 250 248 242 238 235 233 231 231 231 231 231 233 235 238 241 247 252 255 262 272 286 299 306 312 318
25 24 23 23 27 30 32 33 31 18 359 313 268 250 244 242 244 244 245 246 244 239 235 234 233 233 232 233 234 236 237 238 238 239 242 249 257 266 279 290 299 309 320
23 22 20 16 15 18 18 23 28 29 30 21 4 311 264 249 243 241 242 242 242 238 234 232 232 233 233 234 235 236 236 237 237 240 242 246 253 263 272 284 294 304 318
3 6 8 11 11 12 10 7 8 15 23 28 33 33 3 292 249 239 238 237 239 237 235 232 229 228 228 229 231 234 238 240 240 241 241 243 248 255 267 277 286 295 307
342 345 346 350 355 358 358 2 3 0 360 3 10 23 30 35 34 268 237 236 235 235 235 233 232 231 230 229 231 231 234 235 235 238 238 240 245 251 262 269 276 282 295
326 328 330 332 335 338 339 340 347 356 355 352 350 353 3 18 25 29 26 242 240 242 238 237 233 229 229 227 228 231 233 232 232 234 236 240 245 247 250 259 269 272 285
314 315 318 320 320 322 323 326 332 336 338 339 339 337 339 342 344 357 8 312 275 253 248 240 235 232 230 230 225 226 227 231 232 236 239 240 239 239 248 254 262 263 267
310 309 307 307 310 312 313 316 320 320 320 318 317 316 317 319 326 331 338 349 332 286 273 253 237 232 227 226 225 225 227 228 228 230 233 236 236 238 243 248 254 256 253
304 303 303 303 303 303 305 306 305 305 304 301 300 298 294 292 293 296 299 308 307 300 270 262 247 237 236 231 227 226 229 227 228 229 231 230 232 236 239 243 247 251 242
298 299 299 299 299 299 299 298 298 295 297 294 291 289 286 283 280 276 277 277 284 284 271 266 259 249 243 238 237 234 236 235 231 228 231 229 228 232 236 238 240 244 238
292 292 294 296 296 296 295 294 293 293 293 292 288 286 282 280 274 272 266 265 266 263 270 269 265 262 254 246 240 238 242 238 232 231 232 231 228 228 231 233 233 237 235
291 293 295 296 297 296 294 293 291 288 287 287 287 284 282 277 273 269 264 261 257 255 255 250 263 261 258 255 249 243 242 243 239 234 233 229 227 227 227 228 231 233 230
296 295 294 293 294 295 294 293 293 292 289 285 283 284 285 281 273 267 261 258 251 248 245 244 240 250 260 253 250 245 242 243 242 237 233 229 227 226 226 226 226 230 229
301 299 299 298 298 298 298 297 296 293 291 289 286 284 285 282 274 269 262 258 253 246 241 238 236 234 235 256 247 245 241 242 244 245 238 231 228 225 223 223 222 228 223
298 299 300 299 300 299 299 297 295 293 292 291 291 288 283 275 274 273 270 265 260 255 246 239 233 232 227 229 255 248 245 241 240 241 243 235 230 226 225 220 218 220 221
300 301 300 300 299 299 298 297 296 295 294 293 292 290 286 280 276 274 270 266 263 258 253 245 240 232 228 220 226 251 249 245 241 239 238 239 229 224 222 218 216 218 217
301 300 300 299 299 297 296 296 295 293 292 291 290 289 288 285 281 277 273 269 262 258 254 249 242 236 225 220 219 225 245 248 242 235 230 234 232 226 221 218 216 220 216
303 301 299 298 297 297 296 296 295 295 294 291 290 288 286 285 282 278 275 271 266 260 254 250 246 241 233 222 215 218 223 234 245 235 232 228 231 227 223 218 217 218 215
315 312 308 306 304 302 300 298 297 296 294 293 292 290 288 284 281 279 275 271 267 263 259 251 247 241 236 227 218 215 217 223 228 236 233 228 226 225 220 217 219 220 216